Погода в Абеше

Чад     13°59′14″N   20°46′28″E
темп.,
°C
ветер,
м/с
пор.,
м/с
влажн.,
%
обл.,
%
осадки,
мм/ч
давл.,
гПа
погр.,
м
2 июля, сб
сб201:00+26ю71066100 0.0 1012411
04:00+26ююз4664100 0.0 1012322
07:00+27ююз565883 0.0 1013530
10:00+30юз664972 0.0 10131078
13:00+34з43365 0.0 10112221
16:00+34зсз423120 0.0 10092544
19:00+33зюз113771 0.0 101017
22:00+32ююз223728 0.0 101034
3 июля, вс
вс301:00+28ююз4857100 0.0 1010304
04:00+27ю466337 0.0 1010264
07:00+28ююз4660100 0.0 1012447
10:00+31юз554623 0.0 10121002
13:00+34з64355 0.0 10101948
16:00+34з44315 0.0 10082457
19:00+30ююз6749100 0.0 1009410
22:00+29ююз71049100 0.0 1010543
4 июля, пн
пн401:00+27ююз71157100 0.0 1010558
04:00+26ю6116299 0.0 1010548
07:00+27ююз7105844 0.0 1012589
10:00+31ююз6644100 0.0 10121192
13:00+34юз443595 0.0 10102212
16:00+35зсз422999 0.0 10082753
19:00+34зюз2332100 0.1 1009258
22:00+30вюв564899 0.0 1011229
5 июля, вт
вт501:00+27ю71058100 0.1 1011470
04:00+25ю61157100 0.1 1011525
07:00+26ююз586230 0.1 1012440
10:00+32юз5641100 0.0 10121026
13:00+35зюз54315 0.0 10102114
16:00+36зсз552949 0.0 10083058
19:00+34зюз3533100 0.0 1009234
22:00+29юв444897 0.1 1012257
6 июля, ср
ср601:00+29зюз5948100 0.1 1009359
04:00+27ююз47575 0.0 1010255
07:00+28юз475448 0.0 1011382
10:00+33зюз56405 0.0 10111179
13:00+36зсз56312 0.0 10092306
16:00+37ссз432718 0.0 10073319
19:00+35св113236 0.0 100718
22:00+28з68485 0.4 1010428